Regional Weather Roundup
Issued by NWS

Home | Current Version | Previous Version | Text Only | Print | Product List | Glossary On
Versions: 1 2 3 4 5 6 7 8 9 10 11 12 13 14 15 16 17 18 19 20 21 22 23 24 25 26 27 28 29 30 31 32 33 34 35 36 37 38 39 40 41 42 43 44 45 46 47 48 49 50
000
ASUS43 KDTX 070310
RWRMI
MICHIGAN HOURLY REGIONAL WEATHER ROUNDUP
NATIONAL WEATHER SERVICE DETROIT/PONTIAC MI
1100 PM EDT MON JUL 06 2015

NOTE: "FAIR" INDICATES FEW OR NO CLOUDS BELOW 12,000 FEET WITH NO
SIGNIFICANT WEATHER AND/OR OBSTRUCTION TO VISIBILITY.

MIZ047>049-052>055-059>063-066>070-074>076-081>083-070400-
SOUTHEAST LOWER MICHIGAN

CITY           SKY/WX    TMP DP  RH WIND       PRES   REMARKS
ADRIAN         CLOUDY    74  66  76 SW8       29.95R
ALMA           CLOUDY    76  67  71 S6        29.88R
ANN ARBOR      MOCLDY    73  64  73 S5        29.93R
BAD AXE        CLEAR     71  57  62 S9        29.90S
CARO           MOCLDY    72  62  70 S5        29.89S
DETROIT CITY   CLEAR     73  65  75 S8        29.93R
DETROIT        MOCLDY    74  65  73 SE6       29.94R
FLINT          MOCLDY    77  63  61 S9        29.90R
GROSSE ILE     CLEAR     73  68  83 S6        29.93R
HILLSDALE      CLOUDY    76  66  71 S7        29.95S
HOWELL         MOCLDY    74  64  69 S6        29.92S

CITY           SKY/WX    TMP DP  RH WIND       PRES   REMARKS
JACKSON        MOCLDY    75  66  73 S9        29.92S
LAMBERTVILLE   PTCLDY    77  63  62 S3        29.95R
LANSING        MOCLDY    77  66  68 S9        29.90R
LAPEER         FAIR      70  60  69 S5        29.92R
MASON          MOCLDY    72  65  77 S3        29.91S
MONROE         PTCLDY    75  65  71 S6        29.93R
MT. CLEMENS    CLEAR     70  67  88 S9        29.92R
PONTIAC        MOCLDY    74  62  66 S8        29.92R
PORT HOPE        N/A     73  59  61 S6        29.87R
PORT HURON     CLEAR     68  63  83 S6        29.93S
TRI CITIES     MOCLDY    78  65  63 S12       29.87S
MIDLAND        FAIR      77  64  64 S6        29.86R
TROY           PTCLDY    76  63  62 S6        29.95R
SAGINAW HB     MOCLDY    77  63  61 S9        29.88R
$$
MIZ043>046-050>051-056>058-064>065-071>073-077>080-070400-
SOUTHWEST LOWER MICHIGAN

CITY           SKY/WX    TMP DP  RH WIND       PRES   REMARKS
BATTLE CREEK   CLOUDY    78  65  63 S15       29.90S
BENTON HARBOR  CLOUDY    79  68  69 S9        29.87R
BIG RAPIDS     HVY RAIN  76  66  73 SW3       29.86R
COLDWATER      CLOUDY    75  64  68 S6        29.93R
FREMONT        RAIN      70  69  97 SW10      29.86R
HOLLAND        CLOUDY    79  68  69 S8        29.86R
GRAND RAPIDS   CLOUDY    78  66  66 S9        29.87R
IONIA          FAIR      78  65  64 S9        29.87S
KALAMAZOO      CLOUDY    79  65  62 S13       29.89S
LUDINGTON      CLOUDY    71  67  86 S10       29.83S
MARSHALL       CLOUDY    76  66  72 S6        29.91S
MOUNT PLEASANT CLOUDY    77  65  67 SE7       29.85S
MUSKEGON       LGT RAIN  70  67  90 SE5       29.85F FOG
SOUTH HAVEN    CLOUDY    79  68  69 SW8       29.87R
$$
MIZ016>042-070400-
NORTHERN LOWER MICHIGAN

CITY           SKY/WX    TMP DP  RH WIND       PRES   REMARKS
ALPENA         CLOUDY    77  64  64 S12       29.82S
BEAVER ISLAND  LGT RAIN  60  59  96 NW10      29.80S
BELLAIRE       CLOUDY    79  64  60 S7        29.78S
CADILLAC       DRIZZLE   75  66  74 S6        29.84S
CHARLEVOIX     CLOUDY    64  61  89 W13       29.82R FOG
FRANKFORT      LGT RAIN  73  64  75 S10G21    29.80S
GAYLORD        CLOUDY    75  66  73 S14       29.82F
GRAYLING       CLOUDY    76  65  69 S8        29.84S
HARBOR SPRINGS CLOUDY    69  66  90 NW10      29.78S FOG
HOUGHTON LAKE  CLOUDY    75  65  70 S9        29.85S
MANISTEE       CLOUDY    70  64  83 SW3       29.83R
OSCODA         MOCLDY    76  64  65 S8        29.84F
PELLSTON       LGT RAIN  68  65  90 NW9G22    29.80R FOG
ROGERS CITY    CLOUDY    77  66  68 S9        29.79F
TRAVERSE CITY  CLOUDY    80  66  62 VRB7      29.78R
$$
MIZ007>008-015-070400-
EASTERN UPPER MICHIGAN

CITY           SKY/WX    TMP DP  RH WIND       PRES   REMARKS
KINROSS        CLOUDY    66  66 100 SW3       29.78S
MACKINAC ISLAN RAIN      64  64 100 W7        29.79S
NEWBERRY       LGT RAIN  56  56  99 NW9       29.81R
S. S. MARIE    HVY RAIN  68  67  96 SW9       29.77F FOG
MUNISING         N/A     52  50  93 NW20      29.85S
$$
MIZ004>006-011>014-085-070400-
CENTRAL UPPER MICHIGAN

CITY           SKY/WX    TMP DP  RH WIND       PRES   REMARKS
MANISTIQUE     LGT RAIN  56  55  94 N15       29.81R
ESCANABA       CLOUDY    57  55  94 N7        29.84R
MENOMINEE      CLOUDY    57  54  88 N8        29.86R
SAWYER-GWINN   CLOUDY    56  54  92 N16       29.89R FOG
$$
MIZ001>003-009>011-084-070400-
WESTERN UPPER MICHIGAN

CITY           SKY/WX    TMP DP  RH WIND       PRES   REMARKS
IRON MOUNTAIN  CLOUDY    59  56  89 NW10      29.88R FOG
HOUGHTON       CLOUDY    53  52  96 NW7       29.93R FOG
COPPER HARBOR    N/A     51  47  86 NW5       29.92R
IRONWOOD       MOCLDY    55  55 100 W6        29.95R VSB 3/4
$$

ABBREVIATIONS USED IN REMARKS
   TC - TEMPERATURE IN CELSIUS
  WCI - WIND CHILL INDEX
   HX - HEAT INDEX
  VSB - VISIBILITY




USA.gov is the U.S. government's official web portal to all federal, state and local government web resources and services.